Tracking 30922 objects as of 2-Jul-2025
HD Live streaming from Space Station
objects crossing your sky now

CINEMA

Track CINEMA now!
10-day predictions
CINEMA is classified as:


NORAD ID: 38764
Int'l Code: 2012-048G
Perigee: 416.8 km
Apogee: 570.2 km
Inclination: 64.6 °
Period: 94.3 minutes
Semi major axis: 6864 km
RCS: Unknown
Launch date: September 13, 2012
Source: United States (US)
Launch site: AIR FORCE WESTERN TEST RANGE (AFWTR)
Your satellite tracking list
Your tracking list is empty




NASA's NSSDC Master Catalog

Two Line Element Set (TLE):
1 38764U 12048G   25182.41864856  .00013048  00000-0  42162-3 0  9997
2 38764  64.6494 179.8189 0111733 268.6295  90.2032 15.26478780 63351
Source of the keplerian elements: AFSPC